• In Latvia
  • List of Countries
  • For 7 days
  • Water Temperature
  • Satellite Maps
  • Weather Map
  • Weather Widgets
  • user-avatar
    Login

    Hourly Weather Fier

    Today, 28 June, Wednesday

    Time Temperature Precipitation Wind Pressure Humidity
    00:00 +25°C° 0 mm 3 mps 757 mmHg 67%
    01:00 +25°C° 0 mm 4 mps 756 mmHg 68%
    02:00 +25°C° 0 mm 4 mps 756 mmHg 67%
    03:00 +25°C° 0 mm 4 mps 756 mmHg 67%
    04:00 +25°C° 0 mm 4 mps 756 mmHg 66%
    05:00 +27°C° 0 mm 4 mps 756 mmHg 60%
    06:00 +29°C° 0 mm 4 mps 756 mmHg 54%
    07:00 +32°C° 0 mm 4 mps 756 mmHg 46%
    08:00 +33°C° 0 mm 4 mps 756 mmHg 42%
    09:00 +35°C° 0 mm 5 mps 756 mmHg 38%
    10:00 +36°C° 0 mm 5 mps 756 mmHg 33%
    11:00 +36°C° 0 mm 5 mps 756 mmHg 33%
    12:00 +37°C° 0 mm 5 mps 756 mmHg 32%
    13:00 +36°C° 0 mm 5 mps 756 mmHg 34%
    14:00 +36°C° 0 mm 5 mps 756 mmHg 34%
    15:00 +36°C° 0 mm 5 mps 756 mmHg 35%
    16:00 +36°C° 0 mm 4 mps 756 mmHg 35%
    17:00 +33°C° 0 mm 4 mps 756 mmHg 44%
    18:00 +30°C° 0 mm 4 mps 756 mmHg 53%
    19:00 +28°C° 0 mm 4 mps 756 mmHg 62%
    20:00 +28°C° 0 mm 4 mps 756 mmHg 60%
    21:00 +27°C° 0 mm 4 mps 756 mmHg 59%
    22:00 +27°C° 0 mm 4 mps 757 mmHg 57%
    23:00 +27°C° 0 mm 5 mps 757 mmHg 57%

    Tomorrow, 29 June, Thursday

    Time Temperature Precipitation Wind Pressure Humidity
    00:00 +27°C° 0 mm 5 mps 756 mmHg 56%
    01:00 +27°C° 0 mm 5 mps 756 mmHg 56%
    02:00 +27°C° 0 mm 5 mps 756 mmHg 54%
    03:00 +27°C° 0 mm 6 mps 756 mmHg 52%
    04:00 +27°C° 0 mm 6 mps 756 mmHg 50%
    05:00 +28°C° 0 mm 6 mps 756 mmHg 47%
    06:00 +30°C° 0 mm 6 mps 756 mmHg 44%
    07:00 +33°C° 0 mm 6 mps 756 mmHg 41%
    08:00 +34°C° 0 mm 6 mps 756 mmHg 36%
    09:00 +36°C° 0 mm 7 mps 756 mmHg 30%
    10:00 +39°C° 0 mm 8 mps 756 mmHg 25%
    11:00 +40°C° 0 mm 8 mps 756 mmHg 25%
    12:00 +40°C° 0 mm 8 mps 756 mmHg 25%
    13:00 +40°C° 0 mm 8 mps 756 mmHg 25%
    14:00 +40°C° 0 mm 8 mps 756 mmHg 27%
    15:00 +39°C° 0 mm 8 mps 756 mmHg 28%
    16:00 +39°C° 0 mm 7 mps 756 mmHg 30%
    17:00 +35°C° 0 mm 7 mps 756 mmHg 38%
    18:00 +33°C° 0 mm 6 mps 756 mmHg 47%
    19:00 +29°C° 0 mm 6 mps 756 mmHg 55%
    20:00 +28°C° 0 mm 6 mps 757 mmHg 56%
    21:00 +28°C° 0 mm 6 mps 758 mmHg 56%
    22:00 +27°C° 0 mm 6 mps 758 mmHg 57%
    23:00 +27°C° 0 mm 5 mps 758 mmHg 57%

    Day after tomorrow, 30 June, Friday

    Time Temperature Precipitation Wind Pressure Humidity
    00:00 +27°C° 0 mm 5 mps 758 mmHg 57%
    01:00 +26°C° 0 mm 5 mps 759 mmHg 56%
    02:00 +26°C° 0 mm 4 mps 759 mmHg 56%
    03:00 +26°C° 0 mm 4 mps 759 mmHg 56%
    04:00 +25°C° 0 mm 3 mps 759 mmHg 55%
    05:00 +27°C° 0 mm 3 mps 759 mmHg 51%
    06:00 +30°C° 0 mm 3 mps 759 mmHg 46%
    07:00 +32°C° 0 mm 2 mps 759 mmHg 41%
    08:00 +35°C° 0 mm 2 mps 759 mmHg 37%
    09:00 +37°C° 0 mm 3 mps 759 mmHg 32%
    10:00 +39°C° 0 mm 3 mps 759 mmHg 28%
    11:00 +39°C° 0 mm 3 mps 759 mmHg 27%
    12:00 +41°C° 0 mm 4 mps 759 mmHg 26%
    13:00 +42°C° 0 mm 5 mps 758 mmHg 25%
    14:00 +41°C° 0 mm 5 mps 758 mmHg 26%
    15:00 +41°C° 0 mm 5 mps 758 mmHg 27%
    16:00 +40°C° 0 mm 5 mps 757 mmHg 29%
    17:00 +37°C° 0 mm 4 mps 757 mmHg 37%
    18:00 +34°C° 0 mm 4 mps 757 mmHg 46%
    19:00 +30°C° 0 mm 4 mps 757 mmHg 54%
    20:00 +30°C° 0 mm 4 mps 758 mmHg 52%
    21:00 +29°C° 0 mm 4 mps 758 mmHg 50%
    22:00 +29°C° 0 mm 5 mps 758 mmHg 48%
    23:00 +29°C° 0 mm 5 mps 758 mmHg 45%

    1 July, Saturday

    Time Temperature Precipitation Wind Pressure Humidity
    00:00 +29°C° 0 mm 5 mps 757 mmHg 43%
    01:00 +29°C° 0 mm 5 mps 757 mmHg 40%
    02:00 +28°C° 0 mm 5 mps 757 mmHg 38%
    03:00 +28°C° 0 mm 5 mps 757 mmHg 36%
    04:00 +28°C° 0 mm 4 mps 757 mmHg 34%
    05:00 +30°C° 0 mm 3 mps 757 mmHg 34%
    06:00 +33°C° 0 mm 3 mps 757 mmHg 33%
    07:00 +34°C° 0 mm 2 mps 758 mmHg 33%
    08:00 +36°C° 0 mm 2 mps 758 mmHg 32%
    09:00 +37°C° 0 mm 2 mps 758 mmHg 31%
    10:00 +38°C° 0 mm 2 mps 757 mmHg 31%
    11:00 +39°C° 0 mm 3 mps 757 mmHg 30%
    12:00 +40°C° 0 mm 3 mps 757 mmHg 29%
    13:00 +41°C° 0 mm 4 mps 757 mmHg 29%
    14:00 +40°C° 0 mm 4 mps 756 mmHg 32%
    15:00 +38°C° 0 mm 4 mps 756 mmHg 36%
    16:00 +38°C° 0 mm 3 mps 756 mmHg 39%
    17:00 +35°C° 0 mm 3 mps 756 mmHg 50%
    18:00 +31°C° 0 mm 2 mps 756 mmHg 61%
    19:00 +29°C° 0 mm 2 mps 756 mmHg 71%
    20:00 +28°C° 0 mm 2 mps 756 mmHg 77%
    21:00 +26°C° 0 mm 2 mps 756 mmHg 83%
    22:00 +25°C° 0 mm 2 mps 756 mmHg 88%
    23:00 +25°C° 0 mm 2 mps 756 mmHg 89%

    2 July, Sunday

    Time Temperature Precipitation Wind Pressure Humidity
    00:00 +25°C° 0 mm 2 mps 756 mmHg 90%
    01:00 +24°C° 0 mm 2 mps 756 mmHg 91%
    02:00 +24°C° 0 mm 3 mps 756 mmHg 91%
    03:00 +24°C° 0 mm 3 mps 756 mmHg 91%
    04:00 +24°C° 0 mm 3 mps 755 mmHg 91%
    05:00 +25°C° 0 mm 3 mps 755 mmHg 81%
    06:00 +27°C° 0 mm 3 mps 755 mmHg 70%
    07:00 +29°C° 0 mm 3 mps 755 mmHg 60%
    08:00 +30°C° 0 mm 4 mps 755 mmHg 54%
    09:00 +33°C° 0 mm 5 mps 755 mmHg 48%
    10:00 +34°C° 0 mm 5 mps 755 mmHg 41%
    11:00 +34°C° 0 mm 6 mps 755 mmHg 39%
    12:00 +34°C° 0 mm 7 mps 755 mmHg 37%
    13:00 +34°C° 0 mm 7 mps 754 mmHg 35%
    14:00 +33°C° 0 mm 7 mps 754 mmHg 36%
    15:00 +32°C° 0 mm 7 mps 754 mmHg 38%
    16:00 +32°C° 0 mm 7 mps 754 mmHg 39%
    17:00 +29°C° 0 mm 6 mps 755 mmHg 48%
    18:00 +27°C° 0 mm 5 mps 755 mmHg 56%
    19:00 +25°C° 0 mm 4 mps 755 mmHg 65%
    20:00 +23°C° 0.1 mm 4 mps 755 mmHg 71%
    21:00 +22°C° 0.1 mm 4 mps 756 mmHg 77%
    22:00 +20°C° 0.1 mm 3 mps 756 mmHg 83%
    23:00 +20°C° 0.3 mm 3 mps 756 mmHg 84%

    3 July, Monday

    Time Temperature Precipitation Wind Pressure Humidity
    00:00 +20°C° 0.3 mm 3 mps 755 mmHg 85%
    01:00 +20°C° 0.3 mm 3 mps 755 mmHg 86%
    02:00 +19°C° 0.4 mm 3 mps 755 mmHg 86%
    03:00 +19°C° 0.4 mm 3 mps 755 mmHg 86%
    04:00 +19°C° 0.4 mm 3 mps 755 mmHg 85%
    05:00 +21°C° 0 mm 3 mps 755 mmHg 76%
    06:00 +24°C° 0 mm 3 mps 755 mmHg 67%
    07:00 +26°C° 0 mm 3 mps 756 mmHg 58%
    08:00 +27°C° 0 mm 4 mps 756 mmHg 52%
    09:00 +28°C° 0 mm 5 mps 756 mmHg 45%
    10:00 +30°C° 0 mm 6 mps 756 mmHg 39%
    11:00 +30°C° 0 mm 6 mps 756 mmHg 38%
    12:00 +32°C° 0 mm 7 mps 756 mmHg 36%
    13:00 +32°C° 0 mm 7 mps 756 mmHg 35%
    14:00 +32°C° 0 mm 7 mps 756 mmHg 37%
    15:00 +30°C° 0 mm 7 mps 756 mmHg 39%
    16:00 +31°C° 0 mm 8 mps 756 mmHg 41%
    17:00 +28°C° 0 mm 7 mps 756 mmHg 46%
    18:00 +27°C° 0 mm 6 mps 756 mmHg 52%
    19:00 +25°C° 0 mm 5 mps 757 mmHg 58%
    20:00 +23°C° 0 mm 5 mps 757 mmHg 59%
    21:00 +22°C° 0 mm 5 mps 757 mmHg 61%
    22:00 +21°C° 0 mm 5 mps 758 mmHg 63%
    23:00 +21°C° 0 mm 5 mps 758 mmHg 64%
    Show more